Year,Month,Day,Hour,Minute,Value (Times are PST for temperature in C)
2006,07,21,00,04,12.70
2006,07,21,00,05,12.70
2006,07,21,00,06,12.70
2006,07,21,00,07,12.70
2006,07,21,00,09,12.90
2006,07,21,00,11,12.90
2006,07,21,00,12,12.90
2006,07,21,00,13,12.90
2006,07,21,00,15,12.90
2006,07,21,00,16,12.90
2006,07,21,00,17,12.90
2006,07,21,00,18,12.90
2006,07,21,00,19,12.90
2006,07,21,00,20,12.90
2006,07,21,00,21,12.90
2006,07,21,00,22,12.90
2006,07,21,00,23,12.90
2006,07,21,00,24,12.90
2006,07,21,00,25,12.90
2006,07,21,00,26,12.90
2006,07,21,00,27,12.90
2006,07,21,00,28,13.10
2006,07,21,00,29,13.10
2006,07,21,00,30,13.10
2006,07,21,00,32,13.10
2006,07,21,00,33,13.10
2006,07,21,00,34,13.10
2006,07,21,00,35,13.10
2006,07,21,00,36,13.10
2006,07,21,00,37,13.10
2006,07,21,00,38,13.10
2006,07,21,00,39,13.10
2006,07,21,00,40,13.80
2006,07,21,00,41,13.80
2006,07,21,00,42,13.80
2006,07,21,00,43,13.80
2006,07,21,00,44,13.80
2006,07,21,00,45,13.80
2006,07,21,00,46,13.80
2006,07,21,00,48,13.80
2006,07,21,00,49,13.80
2006,07,21,00,50,13.80
2006,07,21,00,52,14.80
2006,07,21,00,53,14.80
2006,07,21,00,54,14.80
2006,07,21,00,55,14.80
2006,07,21,00,56,14.80
2006,07,21,00,57,14.80
2006,07,21,00,58,14.80
2006,07,21,00,59,14.80
2006,07,21,01,00,14.80
2006,07,21,01,01,14.80
2006,07,21,01,02,14.80
2006,07,21,01,03,14.80
2006,07,21,01,04,14.40
2006,07,21,01,05,14.40
2006,07,21,01,06,14.40
2006,07,21,01,07,14.40
2006,07,21,01,08,14.40
2006,07,21,01,09,14.40
2006,07,21,01,10,14.40
2006,07,21,01,12,13.60
2006,07,21,01,13,13.60
2006,07,21,01,14,13.60
2006,07,21,01,15,13.60
2006,07,21,01,16,13.30
2006,07,21,01,17,13.30
2006,07,21,01,18,13.30
2006,07,21,01,19,13.30
2006,07,21,01,20,13.30
2006,07,21,01,21,13.30
2006,07,21,01,22,13.30
2006,07,21,01,23,13.30
2006,07,21,01,24,13.30
2006,07,21,01,25,13.30
2006,07,21,01,27,13.30
2006,07,21,01,29,13.30
2006,07,21,01,30,13.30
2006,07,21,01,32,13.30
2006,07,21,01,33,13.30
2006,07,21,01,34,13.30
2006,07,21,01,35,13.30
2006,07,21,01,36,13.30
2006,07,21,01,37,13.30
2006,07,21,01,38,13.30
2006,07,21,01,39,13.30
2006,07,21,01,40,12.90
2006,07,21,01,41,12.90
2006,07,21,01,42,12.90
2006,07,21,01,43,12.90
2006,07,21,01,44,12.90
2006,07,21,01,45,12.90
2006,07,21,01,46,12.90
2006,07,21,01,47,12.90
2006,07,21,01,48,12.90
2006,07,21,01,49,12.90
2006,07,21,01,50,12.90
2006,07,21,01,51,12.90
2006,07,21,01,52,13.40
2006,07,21,01,53,13.40
2006,07,21,01,54,13.40
2006,07,21,01,55,13.40
2006,07,21,01,56,13.40
2006,07,21,01,57,13.40
2006,07,21,01,58,13.40
2006,07,21,01,59,13.40
2006,07,21,02,00,13.40
2006,07,21,02,01,13.40
2006,07,21,02,02,13.40
2006,07,21,02,03,13.40
2006,07,21,02,04,13.60
2006,07,21,02,05,13.60
2006,07,21,02,06,13.60
2006,07,21,02,07,13.60
2006,07,21,02,08,13.60
2006,07,21,02,09,13.60
2006,07,21,02,10,13.60
2006,07,21,02,12,13.60
2006,07,21,02,13,13.60
2006,07,21,02,14,13.60
2006,07,21,02,15,13.60
2006,07,21,02,16,13.60
2006,07,21,02,17,13.60
2006,07,21,02,18,13.60
2006,07,21,02,19,13.60
2006,07,21,02,20,13.60
2006,07,21,02,21,13.60
2006,07,21,02,22,13.60
2006,07,21,02,23,13.60
2006,07,21,02,24,13.60
2006,07,21,02,25,13.60
2006,07,21,02,26,13.60
2006,07,21,02,27,13.60
2006,07,21,02,28,13.60
2006,07,21,02,29,13.60
2006,07,21,02,30,14.20
2006,07,21,02,31,14.20
2006,07,21,02,32,14.20
2006,07,21,02,33,14.20
2006,07,21,02,34,14.20
2006,07,21,02,35,14.20
2006,07,21,02,36,14.20
2006,07,21,02,37,14.20
2006,07,21,02,38,14.20
2006,07,21,02,39,14.20
2006,07,21,02,40,14.20
2006,07,21,02,41,14.20
2006,07,21,02,42,13.90
2006,07,21,02,43,13.90
2006,07,21,02,44,13.90
2006,07,21,02,45,13.90
2006,07,21,02,46,13.90
2006,07,21,02,47,13.90
2006,07,21,02,48,13.90
2006,07,21,02,49,13.90
2006,07,21,02,50,13.90
2006,07,21,02,51,13.90
2006,07,21,02,52,13.90
2006,07,21,02,53,13.90
2006,07,21,02,54,13.40
2006,07,21,02,55,13.40
2006,07,21,02,56,13.40
2006,07,21,02,57,13.40
2006,07,21,02,58,13.40
2006,07,21,02,59,13.40
2006,07,21,03,00,13.40
2006,07,21,03,01,13.40
2006,07,21,03,02,13.40
2006,07,21,03,03,13.40
2006,07,21,03,04,13.40
2006,07,21,03,05,13.40
2006,07,21,03,06,12.80
2006,07,21,03,08,12.80
2006,07,21,03,09,12.80
2006,07,21,03,10,12.80
2006,07,21,03,12,12.80
2006,07,21,03,13,12.80
2006,07,21,03,14,12.80
2006,07,21,03,15,12.80
2006,07,21,03,16,12.80
2006,07,21,03,17,12.80
2006,07,21,03,18,13.30
2006,07,21,03,19,13.30
2006,07,21,03,20,13.40
2006,07,21,03,21,13.40
2006,07,21,03,22,13.40
2006,07,21,03,23,13.40
2006,07,21,03,24,13.40
2006,07,21,03,25,13.40
2006,07,21,03,26,13.40
2006,07,21,03,27,13.40
2006,07,21,03,28,13.40
2006,07,21,03,29,13.40
2006,07,21,03,30,13.40
2006,07,21,03,31,13.40
2006,07,21,03,32,13.40
2006,07,21,03,33,13.40
2006,07,21,03,34,13.40
2006,07,21,03,35,13.40
2006,07,21,03,36,13.40
2006,07,21,03,37,13.40
2006,07,21,03,38,13.40
2006,07,21,03,39,13.40
2006,07,21,03,40,13.40
2006,07,21,03,42,13.90
2006,07,21,03,43,13.90
2006,07,21,03,44,13.90
2006,07,21,03,45,13.90
2006,07,21,03,46,13.90
2006,07,21,03,47,13.90
2006,07,21,03,48,13.90
2006,07,21,03,49,13.90
2006,07,21,03,50,13.90
2006,07,21,03,51,13.90
2006,07,21,03,52,13.90
2006,07,21,03,53,13.90
2006,07,21,03,54,14.10
2006,07,21,03,55,14.10
2006,07,21,03,56,14.10
2006,07,21,03,57,14.10
2006,07,21,03,58,14.10
2006,07,21,03,59,14.10
2006,07,21,04,00,14.10
2006,07,21,04,01,14.10
2006,07,21,04,02,14.10
2006,07,21,04,03,14.10
2006,07,21,04,04,14.10
2006,07,21,04,05,14.10
2006,07,21,04,06,13.80
2006,07,21,04,07,13.80
2006,07,21,04,08,13.80
2006,07,21,04,09,13.80
2006,07,21,04,10,13.80
2006,07,21,04,11,13.80
2006,07,21,04,12,13.80
2006,07,21,04,13,13.80
2006,07,21,04,14,13.80
2006,07,21,04,15,13.80
2006,07,21,04,16,13.80
2006,07,21,04,17,13.80
2006,07,21,04,18,14.00
2006,07,21,04,19,14.00
2006,07,21,04,20,14.00
2006,07,21,04,21,14.00
2006,07,21,04,23,13.80
2006,07,21,04,24,13.80
2006,07,21,04,25,13.80
2006,07,21,04,26,13.80
2006,07,21,04,27,13.80
2006,07,21,04,28,13.80
2006,07,21,04,29,13.80
2006,07,21,04,30,13.60
2006,07,21,04,31,13.60
2006,07,21,04,32,13.60
2006,07,21,04,33,13.60
2006,07,21,04,34,13.60
2006,07,21,04,35,13.60
2006,07,21,04,36,13.60
2006,07,21,04,37,13.60
2006,07,21,04,38,13.60
2006,07,21,04,39,13.60
2006,07,21,04,40,13.60
2006,07,21,04,41,13.60
2006,07,21,04,42,13.80
2006,07,21,04,43,13.80
2006,07,21,04,44,13.80
2006,07,21,04,45,13.80
2006,07,21,04,46,13.80
2006,07,21,04,47,13.80
2006,07,21,04,48,13.80
2006,07,21,04,49,13.80
2006,07,21,04,50,13.80
2006,07,21,04,51,13.80
2006,07,21,04,52,13.80
2006,07,21,04,53,13.80
2006,07,21,04,54,13.10
2006,07,21,04,55,13.10
2006,07,21,04,56,13.10
2006,07,21,04,57,13.10
2006,07,21,04,58,13.10
2006,07,21,04,59,13.10
2006,07,21,05,01,13.10
2006,07,21,05,02,13.10
2006,07,21,05,03,13.10
2006,07,21,05,04,13.10
2006,07,21,05,05,13.10
2006,07,21,05,06,12.90
2006,07,21,05,07,12.90
2006,07,21,05,08,12.90
2006,07,21,05,09,12.90
2006,07,21,05,10,12.90
2006,07,21,05,11,12.90
2006,07,21,05,12,12.90
2006,07,21,05,13,12.90
2006,07,21,05,14,12.90
2006,07,21,05,15,12.90
2006,07,21,05,16,12.90
2006,07,21,05,17,12.90
2006,07,21,05,18,12.90
2006,07,21,05,19,12.90
2006,07,21,05,20,12.90
2006,07,21,05,21,12.90
2006,07,21,05,22,12.90
2006,07,21,05,23,12.90
2006,07,21,05,24,12.90
2006,07,21,05,26,13.10
2006,07,21,05,27,13.10
2006,07,21,05,29,13.10
2006,07,21,05,30,12.90
2006,07,21,05,31,12.90
2006,07,21,05,32,12.90
2006,07,21,05,33,12.90
2006,07,21,05,34,12.90
2006,07,21,05,35,12.90
2006,07,21,05,36,12.90
2006,07,21,05,38,12.90
2006,07,21,05,39,12.90
2006,07,21,05,41,12.90
2006,07,21,05,42,13.20
2006,07,21,05,43,13.20
2006,07,21,05,44,13.20
2006,07,21,05,45,13.20
2006,07,21,05,46,13.20
2006,07,21,05,47,13.20
2006,07,21,05,48,13.20
2006,07,21,05,49,13.20
2006,07,21,05,51,13.20
2006,07,21,05,52,13.20
2006,07,21,05,53,13.20
2006,07,21,05,55,13.70
2006,07,21,05,56,13.70
2006,07,21,05,58,13.70
2006,07,21,05,59,13.70
2006,07,21,06,00,13.70
2006,07,21,06,01,13.70
2006,07,21,06,02,13.70
2006,07,21,06,03,13.70
2006,07,21,06,04,13.70
2006,07,21,06,05,13.70
2006,07,21,06,06,14.10
2006,07,21,06,07,14.10
2006,07,21,06,08,14.10
2006,07,21,06,09,14.10
2006,07,21,06,11,14.10
2006,07,21,06,12,14.10
2006,07,21,06,13,14.10
2006,07,21,06,14,14.10
2006,07,21,06,16,14.10
2006,07,21,06,17,14.10
2006,07,21,06,18,14.60
2006,07,21,06,19,14.60
2006,07,21,06,20,14.60
2006,07,21,06,21,14.60
2006,07,21,06,22,14.60
2006,07,21,06,23,14.60
2006,07,21,06,24,14.60
2006,07,21,06,25,14.60
2006,07,21,06,26,14.60
2006,07,21,06,27,14.60
2006,07,21,06,28,14.80
2006,07,21,06,29,14.80
2006,07,21,06,30,14.80
2006,07,21,06,31,14.80
2006,07,21,06,32,14.80
2006,07,21,06,33,14.80
2006,07,21,06,34,14.80
2006,07,21,06,35,14.80
2006,07,21,06,36,14.80
2006,07,21,06,37,14.80
2006,07,21,06,38,14.80
2006,07,21,06,39,14.80
2006,07,21,06,40,14.80
2006,07,21,06,41,14.80
2006,07,21,06,42,14.80
2006,07,21,06,43,14.80
2006,07,21,06,44,14.90
2006,07,21,06,45,14.90
2006,07,21,06,46,14.90
2006,07,21,06,47,14.90
2006,07,21,06,48,14.90
2006,07,21,06,49,14.90
2006,07,21,06,50,14.90
2006,07,21,06,51,14.90
2006,07,21,06,52,14.90
2006,07,21,06,53,14.90
2006,07,21,06,54,14.90
2006,07,21,06,55,14.90
2006,07,21,06,56,14.60
2006,07,21,06,57,14.60
2006,07,21,06,58,14.60
2006,07,21,06,59,14.60
2006,07,21,07,00,14.60
2006,07,21,07,01,14.60
2006,07,21,07,02,14.60
2006,07,21,07,03,14.60
2006,07,21,07,04,14.60
2006,07,21,07,05,14.60
2006,07,21,07,06,14.60
2006,07,21,07,07,14.60
2006,07,21,07,08,14.70
2006,07,21,07,09,14.70
2006,07,21,07,10,14.70
2006,07,21,07,11,14.70
2006,07,21,07,12,14.70
2006,07,21,07,13,14.70
2006,07,21,07,14,14.70
2006,07,21,07,15,14.70
2006,07,21,07,16,14.70
2006,07,21,07,17,14.70
2006,07,21,07,18,14.70
2006,07,21,07,19,14.70
2006,07,21,07,20,14.90
2006,07,21,07,21,14.90
2006,07,21,07,22,14.90
2006,07,21,07,23,14.90
2006,07,21,07,24,14.90
2006,07,21,07,25,14.90
2006,07,21,07,26,14.90
2006,07,21,07,27,14.90
2006,07,21,07,28,14.90
2006,07,21,07,29,14.90
2006,07,21,07,30,14.90
2006,07,21,07,31,14.90
2006,07,21,07,32,15.80
2006,07,21,07,33,15.80
2006,07,21,07,34,15.80
2006,07,21,07,35,15.80
2006,07,21,07,36,15.80
2006,07,21,07,37,15.80
2006,07,21,07,38,15.80
2006,07,21,07,39,15.80
2006,07,21,07,40,15.80
2006,07,21,07,42,15.80
2006,07,21,07,43,15.80
2006,07,21,07,44,16.20
2006,07,21,07,45,16.20
2006,07,21,07,46,16.20
2006,07,21,07,47,16.20
2006,07,21,07,48,16.20
2006,07,21,07,49,16.20
2006,07,21,07,50,16.20
2006,07,21,07,52,16.20
2006,07,21,07,53,16.20
2006,07,21,07,54,16.20
2006,07,21,07,55,16.20
2006,07,21,07,56,15.10
2006,07,21,07,57,15.10
2006,07,21,07,58,15.10
2006,07,21,07,59,15.10
2006,07,21,08,00,15.10
2006,07,21,08,02,15.10
2006,07,21,08,04,15.10
2006,07,21,08,05,15.10
2006,07,21,08,06,15.10
2006,07,21,08,07,15.10
2006,07,21,08,08,15.80
2006,07,21,08,09,15.80
2006,07,21,08,10,15.80
2006,07,21,08,12,15.80
2006,07,21,08,13,15.80
2006,07,21,08,14,15.80
2006,07,21,08,15,15.80
2006,07,21,08,16,15.80
2006,07,21,08,17,15.80
2006,07,21,08,18,15.80
2006,07,21,08,19,15.80
2006,07,21,08,20,16.70
2006,07,21,08,21,16.70
2006,07,21,08,22,16.70
2006,07,21,08,23,16.70
2006,07,21,08,24,16.70
2006,07,21,08,25,16.70
2006,07,21,08,26,16.70
2006,07,21,08,27,16.70
2006,07,21,08,28,16.70
2006,07,21,08,29,16.70
2006,07,21,08,30,16.70
2006,07,21,08,31,16.70
2006,07,21,08,32,17.70
2006,07,21,08,33,17.70
2006,07,21,08,34,17.70
2006,07,21,08,35,17.70
2006,07,21,08,36,17.70
2006,07,21,08,37,17.40
2006,07,21,08,38,17.40
2006,07,21,08,39,17.40
2006,07,21,08,40,17.40
2006,07,21,08,41,17.40
2006,07,21,08,42,17.40
2006,07,21,08,43,17.40
2006,07,21,08,44,17.20
2006,07,21,08,45,17.20
2006,07,21,08,46,17.20
2006,07,21,08,47,17.20
2006,07,21,08,48,17.20
2006,07,21,08,49,17.20
2006,07,21,08,50,17.20
2006,07,21,08,51,17.20
2006,07,21,08,52,17.20
2006,07,21,08,53,17.20
2006,07,21,08,54,17.20
2006,07,21,08,55,17.20
2006,07,21,08,56,17.00
2006,07,21,08,57,17.00
2006,07,21,08,58,17.00
2006,07,21,08,59,17.00
2006,07,21,09,00,17.00
2006,07,21,09,01,17.00
2006,07,21,09,02,17.00
2006,07,21,09,03,17.00
2006,07,21,09,04,17.00
2006,07,21,09,05,17.00
2006,07,21,09,06,17.00
2006,07,21,09,07,17.00
2006,07,21,09,08,16.80
2006,07,21,09,09,16.80
2006,07,21,09,10,16.80
2006,07,21,09,11,16.80
2006,07,21,09,12,16.80
2006,07,21,09,13,16.80
2006,07,21,09,14,16.80
2006,07,21,09,15,16.80
2006,07,21,09,16,16.80
2006,07,21,09,17,16.80
2006,07,21,09,19,16.80
2006,07,21,09,20,17.40
2006,07,21,09,21,17.40
2006,07,21,09,22,17.40
2006,07,21,09,23,17.40
2006,07,21,09,24,17.40
2006,07,21,09,25,17.40
2006,07,21,09,26,17.40
2006,07,21,09,27,17.40
2006,07,21,09,28,17.40
2006,07,21,09,29,17.40
2006,07,21,09,30,17.40
2006,07,21,09,31,17.40
2006,07,21,09,32,17.40
2006,07,21,09,33,17.40
2006,07,21,09,34,17.40
2006,07,21,09,35,17.40
2006,07,21,09,36,17.40
2006,07,21,09,37,17.40
2006,07,21,09,38,17.40
2006,07,21,09,40,17.70
2006,07,21,09,42,17.70
2006,07,21,09,43,17.70
2006,07,21,09,44,17.10
2006,07,21,09,45,17.10
2006,07,21,09,46,17.10
2006,07,21,09,47,17.10
2006,07,21,09,48,17.10
2006,07,21,09,49,17.10
2006,07,21,09,50,17.10
2006,07,21,09,51,17.10
2006,07,21,09,52,17.10
2006,07,21,09,53,17.10
2006,07,21,09,54,17.10
2006,07,21,09,55,17.10
2006,07,21,09,56,17.00
2006,07,21,09,57,17.00
2006,07,21,09,59,17.00
2006,07,21,10,00,17.00
2006,07,21,10,01,17.00
2006,07,21,10,02,17.00
2006,07,21,10,03,17.00
2006,07,21,10,04,17.00
2006,07,21,10,05,17.00
2006,07,21,10,06,17.00
2006,07,21,10,07,17.00
2006,07,21,10,08,17.90
2006,07,21,10,09,17.90
2006,07,21,10,10,17.90
2006,07,21,10,11,17.90
2006,07,21,10,12,17.90
2006,07,21,10,13,17.90
2006,07,21,10,14,17.90
2006,07,21,10,15,17.90
2006,07,21,10,16,17.90
2006,07,21,10,17,17.90
2006,07,21,10,18,17.90
2006,07,21,10,19,17.90
2006,07,21,10,20,16.60
2006,07,21,10,21,16.60
2006,07,21,10,22,16.60
2006,07,21,10,23,16.60
2006,07,21,10,24,16.60
2006,07,21,10,25,16.60
2006,07,21,10,26,16.60
2006,07,21,10,27,16.60
2006,07,21,10,28,16.60
2006,07,21,10,29,16.60
2006,07,21,10,30,16.60
2006,07,21,10,31,16.60
2006,07,21,10,32,17.20
2006,07,21,10,33,17.20
2006,07,21,10,34,17.20
2006,07,21,10,35,17.20
2006,07,21,10,36,17.20
2006,07,21,10,37,17.20
2006,07,21,10,38,17.20
2006,07,21,10,39,17.20
2006,07,21,10,40,17.20
2006,07,21,10,41,17.20
2006,07,21,10,42,17.70
2006,07,21,10,43,17.70
2006,07,21,10,44,17.70
2006,07,21,10,45,17.70
2006,07,21,10,47,18.00
2006,07,21,10,48,18.00
2006,07,21,10,49,18.00
2006,07,21,10,50,18.00
2006,07,21,10,51,18.00
2006,07,21,10,52,18.00
2006,07,21,10,53,18.00
2006,07,21,10,54,18.00
2006,07,21,10,55,18.00
2006,07,21,10,56,18.00
2006,07,21,10,57,18.00
2006,07,21,10,58,18.00
2006,07,21,10,59,18.10
2006,07,21,11,00,18.10
2006,07,21,11,01,18.10
2006,07,21,11,02,18.10
2006,07,21,11,03,18.10
2006,07,21,11,04,18.10
2006,07,21,11,05,18.10
2006,07,21,11,06,18.10
2006,07,21,11,07,18.10
2006,07,21,11,08,18.10
2006,07,21,11,09,18.10
2006,07,21,11,10,18.10
2006,07,21,11,11,18.60
2006,07,21,11,12,18.60
2006,07,21,11,13,18.60
2006,07,21,11,14,18.60
2006,07,21,11,15,18.60
2006,07,21,11,16,18.60
2006,07,21,11,17,18.60
2006,07,21,11,18,18.60
2006,07,21,11,19,18.60
2006,07,21,11,20,18.60
2006,07,21,11,21,18.60
2006,07,21,11,22,18.60
2006,07,21,11,23,18.60
2006,07,21,11,24,18.60
2006,07,21,11,25,18.40
2006,07,21,11,26,18.40
2006,07,21,11,27,18.40
2006,07,21,11,28,18.40
2006,07,21,11,29,18.40
2006,07,21,11,30,18.40
2006,07,21,11,31,18.40
2006,07,21,11,32,18.40
2006,07,21,11,33,18.40
2006,07,21,11,34,18.40
2006,07,21,11,35,18.40
2006,07,21,11,36,18.40
2006,07,21,11,37,18.60
2006,07,21,11,38,18.60
2006,07,21,11,39,18.60
2006,07,21,11,40,18.60
2006,07,21,11,41,18.60
2006,07,21,11,42,18.60
2006,07,21,11,43,18.60
2006,07,21,11,44,18.60
2006,07,21,11,46,18.70
2006,07,21,11,47,18.70
2006,07,21,11,48,18.70
2006,07,21,11,49,18.60
2006,07,21,11,50,18.60
2006,07,21,11,51,18.60
2006,07,21,11,53,18.60
2006,07,21,11,54,18.60
2006,07,21,11,55,18.60
2006,07,21,11,56,18.60
2006,07,21,11,57,18.60
2006,07,21,11,58,18.60
2006,07,21,11,59,18.60
2006,07,21,12,00,18.60
2006,07,21,12,01,18.60
2006,07,21,12,02,18.90
2006,07,21,12,03,18.90
2006,07,21,12,04,18.90
2006,07,21,12,05,18.90
2006,07,21,12,06,18.90
2006,07,21,12,07,18.90
2006,07,21,12,08,18.90
2006,07,21,12,09,18.90
2006,07,21,12,10,18.90
2006,07,21,12,11,18.90
2006,07,21,12,12,18.90
2006,07,21,12,13,18.90
2006,07,21,12,14,20.60
2006,07,21,12,15,20.60
2006,07,21,12,16,20.60
2006,07,21,12,17,20.60
2006,07,21,12,18,20.60
2006,07,21,12,19,20.60
2006,07,21,12,20,20.60
2006,07,21,12,22,20.60
2006,07,21,12,23,20.60
2006,07,21,12,24,20.60
2006,07,21,12,25,20.60
2006,07,21,12,26,20.60
2006,07,21,12,27,20.60
2006,07,21,12,28,20.60
2006,07,21,12,29,20.60
2006,07,21,12,30,20.60
2006,07,21,12,31,20.60
2006,07,21,12,32,20.60
2006,07,21,12,33,20.60
2006,07,21,12,34,20.60
2006,07,21,12,35,20.60
2006,07,21,12,36,20.60
2006,07,21,12,37,20.60
2006,07,21,12,39,21.80
2006,07,21,12,40,21.80
2006,07,21,12,41,21.80
2006,07,21,12,42,21.80
2006,07,21,12,43,21.80
2006,07,21,12,44,21.80
2006,07,21,12,45,21.80
2006,07,21,12,46,21.80
2006,07,21,12,47,21.80
2006,07,21,12,48,21.80
2006,07,21,12,49,21.80
2006,07,21,12,50,21.80
2006,07,21,12,51,21.80
2006,07,21,12,52,21.90
2006,07,21,12,53,21.90
2006,07,21,12,54,21.90
2006,07,21,12,55,21.90
2006,07,21,12,56,21.90
2006,07,21,12,57,21.90
2006,07,21,12,58,21.90
2006,07,21,12,59,21.90
2006,07,21,13,00,21.90
2006,07,21,13,01,21.90
2006,07,21,13,02,21.90
2006,07,21,13,03,21.90
2006,07,21,13,04,21.90
2006,07,21,13,05,20.90
2006,07,21,13,06,20.90
2006,07,21,13,07,20.90
2006,07,21,13,08,20.90
2006,07,21,13,09,20.90
2006,07,21,13,10,20.90
2006,07,21,13,11,20.90
2006,07,21,13,12,20.90
2006,07,21,13,13,20.90
2006,07,21,13,14,20.90
2006,07,21,13,15,20.90
2006,07,21,13,16,20.90
2006,07,21,13,17,20.80
2006,07,21,13,18,20.80
2006,07,21,13,19,20.80
2006,07,21,13,20,20.80
2006,07,21,13,21,20.80
2006,07,21,13,22,20.80
2006,07,21,13,23,20.80
2006,07,21,13,24,20.80
2006,07,21,13,25,20.80
2006,07,21,13,26,20.80
2006,07,21,13,27,20.80
2006,07,21,13,28,20.80
2006,07,21,13,29,21.70
2006,07,21,13,30,21.70
2006,07,21,13,31,21.70
2006,07,21,13,32,21.70
2006,07,21,13,33,21.70
2006,07,21,13,34,21.70
2006,07,21,13,35,21.70
2006,07,21,13,36,21.70
2006,07,21,13,37,21.70
2006,07,21,13,38,21.70
2006,07,21,13,39,21.70
2006,07,21,13,40,21.70
2006,07,21,13,41,21.30
2006,07,21,13,43,21.30
2006,07,21,13,44,21.30
2006,07,21,13,45,21.30
2006,07,21,13,46,21.30
2006,07,21,13,47,21.30
2006,07,21,13,48,21.30
2006,07,21,13,50,21.30
2006,07,21,13,51,20.90
2006,07,21,13,53,20.90
2006,07,21,13,54,20.90
2006,07,21,13,55,21.00
2006,07,21,13,56,21.00
2006,07,21,13,57,21.00
2006,07,21,13,58,21.00
2006,07,21,13,59,21.00
2006,07,21,14,00,21.00
2006,07,21,14,01,21.00
2006,07,21,14,03,21.00
2006,07,21,14,04,21.00
2006,07,21,14,05,21.00
2006,07,21,14,06,21.00
2006,07,21,14,07,21.00
2006,07,21,14,08,21.70
2006,07,21,14,09,21.70
2006,07,21,14,10,21.70
2006,07,21,14,11,21.70
2006,07,21,14,12,21.70
2006,07,21,14,14,21.70
2006,07,21,14,15,21.70
2006,07,21,14,16,21.70
2006,07,21,14,17,21.70
2006,07,21,14,18,21.70
2006,07,21,14,19,21.70
2006,07,21,14,20,22.20
2006,07,21,14,21,22.20
2006,07,21,14,22,22.20
2006,07,21,14,23,22.20
2006,07,21,14,24,22.20
2006,07,21,14,25,22.20
2006,07,21,14,26,22.20
2006,07,21,14,27,22.20
2006,07,21,14,28,22.20
2006,07,21,14,29,22.20
2006,07,21,14,30,22.20
2006,07,21,14,31,22.20
2006,07,21,14,32,22.20
2006,07,21,14,33,22.20
2006,07,21,14,34,22.20
2006,07,21,14,35,22.20
2006,07,21,14,36,22.20
2006,07,21,14,37,22.20
2006,07,21,14,38,22.20
2006,07,21,14,39,22.20
2006,07,21,14,40,22.20
2006,07,21,14,41,22.20
2006,07,21,14,42,22.20
2006,07,21,14,43,22.20
2006,07,21,14,44,21.90
2006,07,21,14,45,21.90
2006,07,21,14,46,21.90
2006,07,21,14,47,21.90
2006,07,21,14,48,21.90
2006,07,21,14,49,21.90
2006,07,21,14,50,21.90
2006,07,21,14,51,21.90
2006,07,21,14,52,21.90
2006,07,21,14,53,21.90
2006,07,21,14,54,21.40
2006,07,21,14,55,21.40
2006,07,21,14,56,21.40
2006,07,21,14,57,21.40
2006,07,21,14,58,21.60
2006,07,21,14,59,21.60
2006,07,21,15,00,21.60
2006,07,21,15,01,21.60
2006,07,21,15,02,21.60
2006,07,21,15,03,21.60
2006,07,21,15,04,21.60
2006,07,21,15,05,21.60
2006,07,21,15,06,21.60
2006,07,21,15,07,21.60
2006,07,21,15,08,21.60
2006,07,21,15,09,21.60
2006,07,21,15,10,21.60
2006,07,21,15,11,22.60
2006,07,21,15,12,22.60
2006,07,21,15,13,22.60
2006,07,21,15,14,22.60
2006,07,21,15,15,22.60
2006,07,21,15,16,22.60
2006,07,21,15,17,22.60
2006,07,21,15,18,22.60
2006,07,21,15,19,22.60
2006,07,21,15,20,22.60
2006,07,21,15,21,22.60
2006,07,21,15,22,22.60
2006,07,21,15,23,22.80
2006,07,21,15,24,22.80
2006,07,21,15,25,22.80
2006,07,21,15,26,22.80
2006,07,21,15,27,22.80
2006,07,21,15,28,22.80
2006,07,21,15,29,22.80
2006,07,21,15,30,22.80
2006,07,21,15,32,22.80
2006,07,21,15,33,22.80
2006,07,21,15,34,22.80
2006,07,21,15,35,22.80
2006,07,21,15,36,22.80
2006,07,21,15,37,22.80
2006,07,21,15,38,22.80
2006,07,21,15,39,22.80
2006,07,21,15,40,22.80
2006,07,21,15,41,22.80
2006,07,21,15,42,22.80
2006,07,21,15,43,22.80
2006,07,21,15,44,22.80
2006,07,21,15,45,22.80
2006,07,21,15,46,22.80
2006,07,21,15,47,22.30
2006,07,21,15,48,22.30
2006,07,21,15,49,22.30
2006,07,21,15,50,22.30
2006,07,21,15,51,22.30
2006,07,21,15,52,22.30
2006,07,21,15,53,22.30
2006,07,21,15,54,22.30
2006,07,21,15,55,22.30
2006,07,21,15,56,22.30
2006,07,21,15,57,22.60
2006,07,21,15,58,22.60
2006,07,21,15,59,22.60
2006,07,21,16,00,22.60
2006,07,21,16,01,22.90
2006,07,21,16,02,22.90
2006,07,21,16,03,22.90
2006,07,21,16,04,22.90
2006,07,21,16,05,22.90
2006,07,21,16,06,22.90
2006,07,21,16,07,22.90
2006,07,21,16,08,22.90
2006,07,21,16,09,22.90
2006,07,21,16,10,22.90
2006,07,21,16,11,22.90
2006,07,21,16,12,22.90
2006,07,21,16,13,22.90
2006,07,21,16,14,23.30
2006,07,21,16,15,23.30
2006,07,21,16,16,23.30
2006,07,21,16,17,23.30
2006,07,21,16,18,23.30
2006,07,21,16,19,23.30
2006,07,21,16,20,23.30
2006,07,21,16,21,23.30
2006,07,21,16,22,23.30
2006,07,21,16,23,23.30
2006,07,21,16,24,23.30
2006,07,21,16,25,23.30
2006,07,21,16,26,22.90
2006,07,21,16,27,22.90
2006,07,21,16,28,22.90
2006,07,21,16,30,22.90
2006,07,21,16,31,22.90
2006,07,21,16,32,22.90
2006,07,21,16,33,22.90
2006,07,21,16,34,22.90
2006,07,21,16,35,22.90
2006,07,21,16,36,22.90
2006,07,21,16,37,22.90
2006,07,21,16,38,22.70
2006,07,21,16,40,22.70
2006,07,21,16,41,22.70
2006,07,21,16,42,22.70
2006,07,21,16,43,22.70
2006,07,21,16,44,22.70
2006,07,21,16,45,22.70
2006,07,21,16,46,22.70
2006,07,21,16,47,22.70
2006,07,21,16,48,22.70
2006,07,21,16,49,22.70
2006,07,21,16,50,22.60
2006,07,21,16,51,22.60
2006,07,21,16,52,22.60
2006,07,21,16,53,22.60
2006,07,21,16,54,22.60
2006,07,21,16,55,22.60
2006,07,21,16,56,22.60
2006,07,21,16,57,22.60
2006,07,21,16,58,22.60
2006,07,21,16,59,22.60
2006,07,21,17,00,22.60
2006,07,21,17,01,22.60
2006,07,21,17,02,22.60
2006,07,21,17,03,22.60
2006,07,21,17,04,22.90
2006,07,21,17,05,22.90
2006,07,21,17,06,22.90
2006,07,21,17,07,22.90
2006,07,21,17,08,22.90
2006,07,21,17,09,22.90
2006,07,21,17,10,22.90
2006,07,21,17,11,22.90
2006,07,21,17,12,22.90
2006,07,21,17,13,22.90
2006,07,21,17,14,22.90
2006,07,21,17,15,22.90
2006,07,21,17,16,22.90
2006,07,21,17,17,22.90
2006,07,21,17,18,22.90
2006,07,21,17,19,22.90
2006,07,21,17,20,22.90
2006,07,21,17,21,22.90
2006,07,21,17,22,22.90
2006,07,21,17,23,22.90
2006,07,21,17,24,22.90
2006,07,21,17,25,22.90
2006,07,21,17,26,22.90
2006,07,21,17,27,22.90
2006,07,21,17,28,22.90
2006,07,21,17,29,23.40
2006,07,21,17,30,23.40
2006,07,21,17,31,23.40
2006,07,21,17,33,23.40
2006,07,21,17,34,23.40
2006,07,21,17,35,23.40
2006,07,21,17,36,23.40
2006,07,21,17,37,23.40
2006,07,21,17,38,23.40
2006,07,21,17,39,23.40
2006,07,21,17,40,23.40
2006,07,21,17,41,22.70
2006,07,21,17,42,22.70
2006,07,21,17,43,22.70
2006,07,21,17,44,22.70
2006,07,21,17,45,22.70
2006,07,21,17,46,22.70
2006,07,21,17,47,22.70
2006,07,21,17,48,22.70
2006,07,21,17,49,22.70
2006,07,21,17,50,22.70
2006,07,21,17,51,22.70
2006,07,21,17,52,22.70
2006,07,21,17,53,23.40
2006,07,21,17,54,23.40
2006,07,21,17,55,23.40
2006,07,21,17,56,23.40
2006,07,21,17,57,23.40
2006,07,21,17,58,23.40
2006,07,21,17,59,23.40
2006,07,21,18,00,23.40
2006,07,21,18,01,23.40
2006,07,21,18,07,24.80
2006,07,21,18,08,24.80
2006,07,21,18,09,24.80
2006,07,21,18,10,24.80
2006,07,21,18,11,24.80
2006,07,21,18,12,24.80
2006,07,21,18,13,24.80
2006,07,21,18,14,24.80
2006,07,21,18,15,24.80
2006,07,21,18,16,24.80